Home   Weather   Hamilton   Past weeks
Flag for USA

Past Weather in Hamilton, Montana, USA — Yesterday and Last 2 Weeks

Now
24 °F

Clear.


Feels Like: 24 °F
Forecast: 45 / 22 °F
Wind: No wind

Location: Missoula International Airport

Current Time: Nov 21, 2019 at 11:03:04 pm

Latest Report: Nov 21, 2019 at 9:53 pm


Visibility: 10 mi

Pressure: 30.21 "Hg (26.30 "Hg at 1090m altitude)

Humidity: 84%

Dew Point: 20 °F

Location of HamiltonLocation

Past Weather in Hamilton — Graph

°F

Hamilton Temperature Yesterday

Maximum temperature yesterday: 42 °F (at 1:53 pm)
Minimum temperature yesterday: 30 °F (at 11:53 pm)
Average temperature yesterday: 36 °F

High & Low Weather Summary for the Past Weeks

 TemperatureHumidityPressure
High53 °F (Nov 10, 2:53 pm)100% (Nov 13, 2:53 am)30.73 "Hg (Nov 13, 2:53 am)
Low18 °F (Nov 7, 7:06 am)41% (Nov 8, 2:53 pm)29.63 "Hg (Nov 19, 3:43 am)
Average34 °F79%30.20 "Hg
* Reported Nov 6 9:53 pm — Nov 21 9:53 pm, Hamilton. Weather by CustomWeather, © 2019

Note: Actual official high and low records may vary slightly from our data, if they occured in-between our weather recording intervals... More about our weather records

Advertising

Hamilton Weather History for the Previous 24 Hours

Scroll right to see more
 ConditionsComfort  
Time TempWeatherWind HumidityBarometerVisibility
9:53 pm
Thu, Nov 21
24 °FClear.No wind84%30.21 "Hg10 mi
8:53 pm25 °FClear.No wind81%30.20 "Hg10 mi
7:53 pm27 °FClear.No wind78%30.19 "Hg10 mi
6:53 pm27 °FClear.No wind78%30.18 "Hg10 mi
5:53 pm28 °FClear.3 mph75%30.15 "Hg10 mi
4:53 pm33 °FSunny.No wind61%30.14 "Hg10 mi
3:53 pm37 °FSunny.5 mph52%30.13 "Hg10 mi
2:53 pm37 °FSunny.No wind52%30.13 "Hg10 mi
1:53 pm35 °FSunny.No wind54%30.14 "Hg10 mi
12:53 pm35 °FSunny.3 mph54%30.16 "Hg10 mi
11:53 am32 °FSunny.No wind61%30.18 "Hg10 mi
10:53 am29 °FSunny.3 mph72%30.21 "Hg10 mi
9:53 am25 °FSunny.5 mph85%30.23 "Hg10 mi
8:53 am23 °FSunny.5 mph85%30.24 "Hg10 mi
7:53 am21 °FSunny.No wind85%30.24 "Hg10 mi
6:53 am23 °FClear.3 mph81%30.22 "Hg10 mi
5:53 am26 °FClear.10 mph74%30.21 "Hg10 mi
4:53 am22 °FClear.3 mph85%30.22 "Hg10 mi
3:53 am24 °FClear.No wind77%30.20 "Hg10 mi
2:53 am24 °FClear.3 mph81%30.21 "Hg10 mi
1:53 am25 °FClear.8 mph81%30.19 "Hg10 mi
12:53 am26 °FClear.No wind77%30.20 "Hg10 mi
11:53 pm
Wed, Nov 20
30 °FClear.8 mph69%30.18 "Hg10 mi
Weather by CustomWeather, © 2019

See weather overview